Hourly Data Report for January 22, 2003

SHERBROOKE A
QUEBEC

45°26'00.000" N
71°41'00.000" W
241.40 m
7028124
71610
YSC

Download Data

Hourly Data (January 2003)
Hourly Data Report for January 22, 2003
TIME
LST
Temp Definition
°C
Dew Point Definition
°C
Rel Hum Definition
%
Precip. Amount Definition
mm

Wind Dir Definition
10's deg

Wind Spd Definition
km/h
Visibility Definition
km
Stn Press Definition
kPa
Hmdx Definition


Wind Chill Definition


Weather Definition


00:00 -23.3 -30.5 52   26 32 12.9 97.74   -37 Snow
01:00 -23.8 -31.1 51   26 26 15.0 97.75   -37 Snow
02:00 -24.0 -31.1 52   25 30 15.0 97.74   -38  
03:00 -24.4 -31.6 51   25 26 15.0 97.74   -37  
04:00 -25.0 -32.3 51   26 28 15.0 97.68   -39  
05:00 -25.2 -32.5 51   24 28 15.0 97.64   -39  
06:00 -25.2 -32.3 52   25 26 15.0 97.62   -39  
07:00 -25.2 -32.1 53   26 24 15.0 97.62   -38  
08:00 -25.5 -32.2 53   26 24 8.0 97.64   -38 Snow Showers
09:00 -25.2 -31.9 54   26 24 12.9 97.64   -38 Snow Showers
10:00 -24.5 -31.7 51   27 28 9.7 97.64   -38 Snow Showers,Blowing Snow
11:00 -23.9 -31.6 49   26 26 12.9 97.60   -37 Snow Showers
12:00 -23.5 -31.0 50   26 33 9.7 97.62   -38 Snow Showers,Blowing Snow
13:00 -23.5 -31.0 50   26 26 4.0 97.60   -36 Snow Showers,Blowing Snow
14:00 -23.3 -30.5 52   25 26 6.4 97.60   -36 Snow Showers,Blowing Snow
15:00 -23.1 -30.2 52   25 32 4.8 97.67   -37 Snow Showers,Blowing Snow
16:00 -23.3 -30.6 51   26 22 11.3 97.72   -35 Snow Showers
17:00 -23.2 -29.6 56   25 20 6.4 97.81   -35 Snow Showers,Blowing Snow
18:00 -22.8 -29.3 55   26 24 11.3 97.83   -35  
19:00 -22.3 -29.1 54   27 26 4.8 97.90   -35 Snow
20:00 -22.2 -28.7 56   27 32 5.6 97.95   -36 Snow
21:00 -22.2 -28.7 56   26 26 11.3 97.99   -35 Snow
22:00 -22.1 -28.6 56   27 24 11.3 98.00   -34  
23:00 -22.3 -29.0 54   27 19 15.0 98.03   -33  

Notes on Data Quality.

Legend

  • E = Estimated
  • M = Missing
  • NA = Not Available*
  • [empty] = Indicates an unobserved value
Date modified: